JES3073 SABE-SAME

Flight info

Callsign JES3073
Flight time 1h 36m
Altitude 34000
Route PAL9 NEPIS DCT NIN UL405 PAPIR PAPIR2U
Aircraft A320/M-SDE3FGHIRWY/LB1

Departure

Time 2026-05-01 11:30
Airport Aeroparque Jorge Newbery (SABE)

Arrival

Time 2026-05-01 13:07
Airport Governor Francisco Gabrielli International Airport (SAME)
Time Latitude Longitude Altitude Speed Heading
2026-05-01 11:14 -34.55843 -58.41178 30 ft 0 kts 40°
2026-05-01 11:24 -34.55845 -58.41181 25 ft 3 kts 40°
2026-05-01 11:24 -34.55866 -58.41199 31 ft 4 kts 19°
2026-05-01 11:24 -34.55900 -58.41175 27 ft 3 kts 311°
2026-05-01 11:25 -34.55903 -58.41171 28 ft 0 kts 311°
2026-05-01 11:26 -34.55895 -58.41183 26 ft 5 kts 311°
2026-05-01 11:27 -34.55863 -58.41230 30 ft 8 kts 308°
2026-05-01 11:27 -34.55877 -58.41291 27 ft 9 kts 214°
2026-05-01 11:27 -34.55944 -58.41270 27 ft 13 kts 127°
2026-05-01 11:27 -34.56002 -58.41177 29 ft 15 kts 127°
2026-05-01 11:28 -34.56069 -58.41071 25 ft 17 kts 127°
2026-05-01 11:28 -34.56141 -58.40949 29 ft 19 kts 122°
2026-05-01 11:28 -34.56204 -58.40801 27 ft 21 kts 116°
2026-05-01 11:29 -34.56378 -58.40507 29 ft 21 kts 138°
2026-05-01 11:29 -34.56462 -58.40416 25 ft 17 kts 138°
2026-05-01 11:29 -34.56567 -58.40433 28 ft 8 kts 279°
2026-05-01 11:30 -34.56472 -58.40597 29 ft 54 kts 304°
2026-05-01 11:30 -34.56134 -58.41196 27 ft 114 kts 304°
2026-05-01 11:30 -34.55605 -58.42151 55 ft 154 kts 306°
2026-05-01 11:30 -34.55026 -58.43218 669 ft 148 kts 305°
2026-05-01 11:31 -34.54390 -58.44148 1251 ft 144 kts 324°
2026-05-01 11:31 -34.53490 -58.44629 1748 ft 144 kts 349°
2026-05-01 11:31 -34.52488 -58.44531 2306 ft 149 kts 13°
2026-05-01 11:31 -34.51592 -58.43829 2832 ft 162 kts 36°
2026-05-01 11:32 -34.50755 -58.42830 3229 ft 173 kts 37°
2026-05-01 11:32 -34.49894 -58.41787 3727 ft 179 kts 37°
2026-05-01 11:32 -34.48957 -58.40660 3963 ft 201 kts 38°
2026-05-01 11:32 -34.47898 -58.39389 4222 ft 226 kts 39°
2026-05-01 11:33 -34.46719 -58.37973 4604 ft 251 kts 40°
2026-05-01 11:33 -34.45441 -58.36425 5213 ft 266 kts 41°
2026-05-01 11:33 -34.44407 -58.34551 6004 ft 280 kts 63°
2026-05-01 11:33 -34.44035 -58.32194 6803 ft 293 kts 88°
2026-05-01 11:34 -34.44494 -58.29748 7564 ft 306 kts 114°
2026-05-01 11:34 -34.45802 -58.27694 8327 ft 314 kts 141°
2026-05-01 11:34 -34.47747 -58.26500 9051 ft 317 kts 169°
2026-05-01 11:34 -34.49923 -58.26447 9745 ft 313 kts 198°
2026-05-01 11:35 -34.51856 -58.27516 10448 ft 302 kts 225°
2026-05-01 11:35 -34.53198 -58.29390 11156 ft 291 kts 248°
2026-05-01 11:35 -34.53901 -58.31661 11587 ft 300 kts 258°
2026-05-01 11:35 -34.54515 -58.34182 11756 ft 323 kts 259°
2026-05-01 11:36 -34.55149 -58.36881 11885 ft 344 kts 259°
2026-05-01 11:36 -34.55822 -58.39744 12135 ft 359 kts 258°
2026-05-01 11:36 -34.56524 -58.42676 12687 ft 365 kts 258°
2026-05-01 11:36 -34.57244 -58.45643 13296 ft 368 kts 257°
2026-05-01 11:37 -34.57973 -58.48630 13914 ft 370 kts 257°
2026-05-01 11:37 -34.58706 -58.51636 14441 ft 372 kts 257°
2026-05-01 11:37 -34.59429 -58.54619 14973 ft 375 kts 257°
2026-05-01 11:37 -34.60163 -58.57657 15512 ft 377 kts 257°
2026-05-01 11:38 -34.60939 -58.60709 16043 ft 381 kts 253°
2026-05-01 11:38 -34.61811 -58.63742 16549 ft 379 kts 262°
2026-05-01 11:38 -34.62002 -58.66911 17077 ft 376 kts 275°
2026-05-01 11:38 -34.61703 -58.70069 17633 ft 377 kts 281°
2026-05-01 11:39 -34.61240 -58.73208 18178 ft 379 kts 282°
2026-05-01 11:39 -34.60803 -58.76373 18654 ft 382 kts 280°
2026-05-01 11:39 -34.60469 -58.79580 19130 ft 385 kts 278°
2026-05-01 11:39 -34.60248 -58.82784 19602 ft 387 kts 276°
2026-05-01 11:40 -34.60107 -58.86061 20084 ft 390 kts 275°
2026-05-01 11:40 -34.60009 -58.89360 20544 ft 393 kts 275°
2026-05-01 11:40 -34.59921 -58.92682 20988 ft 395 kts 275°
2026-05-01 11:40 -34.59823 -58.96019 21416 ft 397 kts 275°
2026-05-01 11:41 -34.59710 -58.99376 21835 ft 399 kts 275°
2026-05-01 11:41 -34.59583 -59.02750 22244 ft 401 kts 275°
2026-05-01 11:41 -34.59446 -59.06140 22653 ft 403 kts 276°
2026-05-01 11:41 -34.59304 -59.09539 23055 ft 405 kts 276°
2026-05-01 11:42 -34.59156 -59.12961 23438 ft 407 kts 276°
2026-05-01 11:42 -34.59010 -59.16352 23763 ft 409 kts 276°
2026-05-01 11:42 -34.58862 -59.19805 24094 ft 411 kts 276°
2026-05-01 11:42 -34.58715 -59.23274 24425 ft 412 kts 276°
2026-05-01 11:43 -34.58568 -59.26748 24756 ft 414 kts 276°
2026-05-01 11:43 -34.58420 -59.30243 25084 ft 415 kts 276°
2026-05-01 11:43 -34.58271 -59.33747 25438 ft 417 kts 276°
2026-05-01 11:44 -34.57967 -59.40758 26309 ft 414 kts 276°
2026-05-01 11:44 -34.57813 -59.44237 26785 ft 412 kts 276°
2026-05-01 11:44 -34.57665 -59.47661 27243 ft 411 kts 276°
2026-05-01 11:44 -34.57514 -59.51117 27674 ft 410 kts 276°
2026-05-01 11:45 -34.57362 -59.54566 28152 ft 408 kts 276°
2026-05-01 11:45 -34.57209 -59.57996 28631 ft 407 kts 276°
2026-05-01 11:45 -34.57061 -59.61417 29133 ft 405 kts 275°
2026-05-01 11:45 -34.56961 -59.64831 29643 ft 404 kts 274°
2026-05-01 11:46 -34.56905 -59.68234 30118 ft 403 kts 274°
2026-05-01 11:46 -34.56867 -59.71626 30534 ft 401 kts 274°
2026-05-01 11:46 -34.56830 -59.75009 30938 ft 400 kts 274°
2026-05-01 11:46 -34.56787 -59.78381 31341 ft 399 kts 274°
2026-05-01 11:47 -34.56734 -59.81694 31740 ft 398 kts 274°
2026-05-01 11:47 -34.56671 -59.85043 32150 ft 396 kts 274°
2026-05-01 11:47 -34.56606 -59.88381 32566 ft 395 kts 274°
2026-05-01 11:47 -34.56540 -59.91707 33012 ft 394 kts 274°
2026-05-01 11:48 -34.56474 -59.95029 33427 ft 393 kts 274°
2026-05-01 11:48 -34.56408 -59.98338 33841 ft 392 kts 274°
2026-05-01 11:48 -34.56341 -60.01634 34195 ft 391 kts 274°
2026-05-01 11:48 -34.56271 -60.04925 34553 ft 389 kts 275°
2026-05-01 11:49 -34.56201 -60.08156 34915 ft 387 kts 275°
2026-05-01 11:49 -34.56133 -60.11409 35278 ft 385 kts 275°
2026-05-01 11:49 -34.56064 -60.14641 35632 ft 383 kts 275°
2026-05-01 11:49 -34.55995 -60.17866 35860 ft 382 kts 275°
2026-05-01 11:50 -34.55849 -60.24396 35896 ft 392 kts 275°
2026-05-01 11:50 -34.55701 -60.31045 35896 ft 396 kts 275°
2026-05-01 11:51 -34.55545 -60.37723 35896 ft 396 kts 275°
2026-05-01 11:51 -34.55381 -60.44357 35896 ft 396 kts 275°
2026-05-01 11:52 -34.55220 -60.51037 35910 ft 396 kts 275°
2026-05-01 11:52 -34.55059 -60.57717 35904 ft 396 kts 275°
2026-05-01 11:53 -34.54885 -60.64404 35901 ft 397 kts 275°
2026-05-01 11:53 -34.54711 -60.71051 35902 ft 397 kts 275°
2026-05-01 11:54 -34.54538 -60.77743 35920 ft 397 kts 275°
2026-05-01 11:54 -34.54359 -60.84442 35912 ft 397 kts 275°
2026-05-01 11:55 -34.54171 -60.91141 35910 ft 398 kts 275°
2026-05-01 11:55 -34.53451 -60.97699 35907 ft 395 kts 283°
2026-05-01 11:56 -34.52438 -61.04239 35881 ft 395 kts 283°
2026-05-01 11:56 -34.51426 -61.10781 35894 ft 395 kts 283°
2026-05-01 11:57 -34.50413 -61.17329 35894 ft 395 kts 283°
2026-05-01 11:57 -34.49400 -61.23831 35896 ft 396 kts 283°
2026-05-01 11:58 -34.48378 -61.30386 35898 ft 396 kts 283°
2026-05-01 11:59 -34.46836 -61.40217 35917 ft 396 kts 283°
2026-05-01 11:59 -34.45798 -61.46769 35916 ft 396 kts 283°
2026-05-01 12:00 -34.44241 -61.56545 35886 ft 396 kts 283°
2026-05-01 12:01 -34.42681 -61.66359 35897 ft 396 kts 283°
2026-05-01 12:01 -34.41620 -61.72898 35902 ft 395 kts 283°
2026-05-01 12:02 -34.40568 -61.79385 35902 ft 395 kts 283°
2026-05-01 12:02 -34.39521 -61.85915 35902 ft 395 kts 283°
2026-05-01 12:03 -34.38466 -61.92445 35916 ft 395 kts 283°
2026-05-01 12:03 -34.37394 -61.98973 35912 ft 395 kts 283°
2026-05-01 12:04 -34.36325 -62.05459 35913 ft 396 kts 283°
2026-05-01 12:04 -34.35254 -62.11996 35887 ft 396 kts 283°
2026-05-01 12:05 -34.34181 -62.18536 35893 ft 396 kts 283°
2026-05-01 12:05 -34.32552 -62.28325 35915 ft 396 kts 283°
2026-05-01 12:06 -34.31468 -62.34816 35913 ft 396 kts 283°
2026-05-01 12:06 -34.30379 -62.41350 35912 ft 396 kts 283°
2026-05-01 12:07 -34.29285 -62.47883 35915 ft 397 kts 283°
2026-05-01 12:07 -34.28188 -62.54419 35932 ft 397 kts 283°
2026-05-01 12:08 -34.27077 -62.60959 35924 ft 397 kts 283°
2026-05-01 12:08 -34.25977 -62.67454 35920 ft 397 kts 283°
2026-05-01 12:09 -34.24869 -62.73991 35898 ft 397 kts 283°
2026-05-01 12:09 -34.23755 -62.80525 35904 ft 397 kts 283°
2026-05-01 12:10 -34.22077 -62.90322 35917 ft 397 kts 283°
2026-05-01 12:11 -34.20395 -63.00083 35913 ft 397 kts 283°
2026-05-01 12:11 -34.19265 -63.06615 35913 ft 398 kts 283°
2026-05-01 12:12 -34.18134 -63.13157 35928 ft 398 kts 283°
2026-05-01 12:12 -34.17005 -63.19656 35923 ft 398 kts 283°
2026-05-01 12:13 -34.15867 -63.26199 35893 ft 398 kts 283°
2026-05-01 12:13 -34.14720 -63.32734 35902 ft 398 kts 283°
2026-05-01 12:14 -34.13554 -63.39269 35908 ft 398 kts 284°
2026-05-01 12:14 -34.12279 -63.45771 35925 ft 398 kts 284°
2026-05-01 12:15 -34.10974 -63.52219 35919 ft 398 kts 284°
2026-05-01 12:15 -34.09674 -63.58717 35916 ft 399 kts 284°
2026-05-01 12:16 -34.08393 -63.65223 35917 ft 399 kts 284°
2026-05-01 12:16 -34.07100 -63.71727 35916 ft 399 kts 284°
2026-05-01 12:17 -34.05812 -63.78191 35931 ft 399 kts 284°
2026-05-01 12:17 -34.04511 -63.84697 35903 ft 399 kts 284°
2026-05-01 12:18 -34.03204 -63.91211 35906 ft 400 kts 284°
2026-05-01 12:18 -34.01910 -63.97727 35910 ft 400 kts 284°
2026-05-01 12:19 -34.00607 -64.04245 35920 ft 400 kts 284°
2026-05-01 12:19 -33.99304 -64.10715 35931 ft 400 kts 284°
2026-05-01 12:20 -33.97989 -64.17231 35926 ft 400 kts 284°
2026-05-01 12:20 -33.96672 -64.23742 35924 ft 400 kts 284°
2026-05-01 12:21 -33.95352 -64.30245 35919 ft 400 kts 284°
2026-05-01 12:21 -33.94035 -64.36705 35911 ft 400 kts 284°
2026-05-01 12:22 -33.92706 -64.43201 35912 ft 400 kts 284°
2026-05-01 12:22 -33.91372 -64.49696 35913 ft 400 kts 284°
2026-05-01 12:23 -33.90032 -64.56193 35915 ft 400 kts 284°
2026-05-01 12:23 -33.88700 -64.62685 35915 ft 400 kts 284°
2026-05-01 12:24 -33.87374 -64.69133 35910 ft 400 kts 284°
2026-05-01 12:24 -33.86027 -64.75622 35916 ft 400 kts 284°
2026-05-01 12:25 -33.84001 -64.85346 35910 ft 399 kts 284°
2026-05-01 12:26 -33.82646 -64.91822 35908 ft 399 kts 284°
2026-05-01 12:26 -33.80624 -65.01504 35925 ft 400 kts 284°
2026-05-01 12:27 -33.78584 -65.11219 35919 ft 400 kts 284°
2026-05-01 12:28 -33.76532 -65.20884 35915 ft 400 kts 284°
2026-05-01 12:29 -33.74471 -65.30596 35937 ft 400 kts 284°
2026-05-01 12:29 -33.72387 -65.40300 35933 ft 400 kts 284°
2026-05-01 12:30 -33.70127 -65.49904 35911 ft 400 kts 285°
2026-05-01 12:31 -33.68585 -65.56324 35921 ft 400 kts 285°
2026-05-01 12:31 -33.67053 -65.62754 35939 ft 400 kts 285°
2026-05-01 12:32 -33.65543 -65.69184 35938 ft 400 kts 285°
2026-05-01 12:32 -33.63282 -65.78776 35938 ft 400 kts 285°
2026-05-01 12:33 -33.61757 -65.85191 35942 ft 400 kts 285°
2026-05-01 12:33 -33.60214 -65.91595 35944 ft 400 kts 285°
2026-05-01 12:34 -33.58670 -65.98001 35960 ft 399 kts 285°
2026-05-01 12:34 -33.57144 -66.04347 35925 ft 398 kts 285°
2026-05-01 12:35 -33.55619 -66.10732 35936 ft 398 kts 285°
2026-05-01 12:35 -33.54091 -66.17105 35935 ft 398 kts 285°
2026-05-01 12:36 -33.52554 -66.23471 35936 ft 398 kts 285°
2026-05-01 12:36 -33.51023 -66.29799 35944 ft 398 kts 285°
2026-05-01 12:37 -33.49477 -66.36161 35940 ft 398 kts 285°
2026-05-01 12:37 -33.47773 -66.42460 35937 ft 398 kts 289°
2026-05-01 12:38 -33.45769 -66.48649 35936 ft 398 kts 290°
2026-05-01 12:38 -33.43719 -66.54810 35904 ft 398 kts 290°
2026-05-01 12:39 -33.41770 -66.60967 35910 ft 398 kts 287°
2026-05-01 12:39 -33.40160 -66.67307 35910 ft 398 kts 284°
2026-05-01 12:40 -33.38697 -66.73705 35913 ft 399 kts 284°
2026-05-01 12:40 -33.37179 -66.80093 35913 ft 399 kts 285°
2026-05-01 12:41 -33.35614 -66.86421 35916 ft 399 kts 285°
2026-05-01 12:41 -33.34020 -66.92790 35917 ft 400 kts 285°
2026-05-01 12:42 -33.32429 -66.99163 35910 ft 401 kts 285°
2026-05-01 12:42 -33.30841 -67.05553 35911 ft 401 kts 285°
2026-05-01 12:43 -33.29278 -67.11865 35379 ft 396 kts 285°
2026-05-01 12:43 -33.28492 -67.15021 34746 ft 397 kts 285°
2026-05-01 12:43 -33.27697 -67.18193 34062 ft 400 kts 286°
2026-05-01 12:44 -33.26890 -67.21396 33247 ft 404 kts 286°
2026-05-01 12:44 -33.26075 -67.24626 32364 ft 409 kts 286°
2026-05-01 12:44 -33.24338 -67.31169 30638 ft 418 kts 287°
2026-05-01 12:45 -33.22449 -67.37702 29353 ft 413 kts 288°
2026-05-01 12:45 -33.21523 -67.40887 28722 ft 410 kts 288°
2026-05-01 12:45 -33.20599 -67.44093 28113 ft 406 kts 287°
2026-05-01 12:46 -33.19690 -67.47269 27513 ft 403 kts 287°
2026-05-01 12:46 -33.18790 -67.50417 26925 ft 399 kts 287°
2026-05-01 12:46 -33.17900 -67.53539 26354 ft 396 kts 287°
2026-05-01 12:46 -33.17016 -67.56637 25779 ft 393 kts 287°
2026-05-01 12:47 -33.16140 -67.59711 25221 ft 390 kts 287°
2026-05-01 12:47 -33.15271 -67.62760 24663 ft 387 kts 287°
2026-05-01 12:47 -33.14416 -67.65741 24138 ft 384 kts 287°
2026-05-01 12:47 -33.13554 -67.68738 23645 ft 381 kts 287°
2026-05-01 12:48 -33.12697 -67.71717 23088 ft 378 kts 287°
2026-05-01 12:48 -33.11901 -67.74685 22527 ft 373 kts 282°
2026-05-01 12:48 -33.11514 -67.77717 22004 ft 368 kts 273°
2026-05-01 12:48 -33.11313 -67.80752 21494 ft 365 kts 274°
2026-05-01 12:49 -33.11105 -67.83758 21000 ft 362 kts 274°
2026-05-01 12:49 -33.10895 -67.86737 20503 ft 359 kts 274°
2026-05-01 12:49 -33.10687 -67.89656 20010 ft 356 kts 273°
2026-05-01 12:49 -33.10473 -67.92584 19528 ft 353 kts 273°
2026-05-01 12:50 -33.10258 -67.95488 19054 ft 350 kts 273°
2026-05-01 12:50 -33.10047 -67.98366 18584 ft 347 kts 273°
2026-05-01 12:50 -33.09840 -68.01221 18091 ft 344 kts 273°
2026-05-01 12:50 -33.09634 -68.04058 17493 ft 342 kts 273°
2026-05-01 12:51 -33.09427 -68.06881 16868 ft 342 kts 273°
2026-05-01 12:51 -33.09222 -68.09714 16246 ft 343 kts 274°
2026-05-01 12:51 -33.08810 -68.15359 15037 ft 345 kts 274°
2026-05-01 12:52 -33.08599 -68.18207 14442 ft 346 kts 275°
2026-05-01 12:52 -33.08172 -68.23929 13306 ft 346 kts 275°
2026-05-01 12:52 -33.07960 -68.26787 12728 ft 345 kts 275°
2026-05-01 12:53 -33.07539 -68.32473 11658 ft 343 kts 275°
2026-05-01 12:53 -33.07327 -68.35302 11155 ft 342 kts 275°
2026-05-01 12:53 -33.07115 -68.38129 10639 ft 342 kts 275°
2026-05-01 12:54 -33.06904 -68.40914 10144 ft 342 kts 275°
2026-05-01 12:54 -33.06492 -68.46359 9893 ft 318 kts 275°
2026-05-01 12:54 -33.06299 -68.48921 9762 ft 300 kts 275°
2026-05-01 12:55 -33.05947 -68.53533 9501 ft 260 kts 275°
2026-05-01 12:55 -33.05782 -68.55638 9187 ft 252 kts 274°
2026-05-01 12:55 -33.05622 -68.57705 8725 ft 250 kts 275°
2026-05-01 12:56 -33.05466 -68.59742 8289 ft 251 kts 274°
2026-05-01 12:56 -33.05310 -68.61799 8066 ft 247 kts 272°
2026-05-01 12:56 -33.05229 -68.63806 7948 ft 238 kts 270°
2026-05-01 12:56 -33.05207 -68.65744 7825 ft 230 kts 269°
2026-05-01 12:57 -33.05202 -68.67616 7703 ft 221 kts 269°
2026-05-01 12:57 -33.05193 -68.71094 7394 ft 201 kts 269°
2026-05-01 12:57 -33.05184 -68.72751 7056 ft 199 kts 269°
2026-05-01 12:58 -33.05173 -68.74380 6743 ft 199 kts 269°
2026-05-01 12:58 -33.05060 -68.76015 6409 ft 199 kts 282°
2026-05-01 12:58 -33.04505 -68.77525 6079 ft 201 kts 302°
2026-05-01 12:59 -33.02260 -68.79420 5349 ft 204 kts 345°
2026-05-01 12:59 -33.00855 -68.79554 5051 ft 202 kts
2026-05-01 12:59 -32.98247 -68.79512 4911 ft 177 kts
2026-05-01 13:00 -32.95846 -68.79476 4546 ft 167 kts
2026-05-01 13:00 -32.94694 -68.79459 4301 ft 164 kts
2026-05-01 13:01 -32.92424 -68.79426 3855 ft 163 kts
2026-05-01 13:01 -32.91295 -68.79409 3651 ft 162 kts
2026-05-01 13:01 -32.89057 -68.79375 3238 ft 160 kts
2026-05-01 13:02 -32.87956 -68.79359 3031 ft 160 kts
2026-05-01 13:07 -32.82764 -68.79777 2335 ft 0 kts 264°